Aérodrome :
LOGIN :

S'inscrire | Disclaimer

   EN    FR    IT 

 










Légende :    VFR   VFR Marginal   IFR   IFR Intensif   IFR Très Intensif
Visi : 
Plafond : 
>= 8 km
>= 3000ft
5 à 8 km
1000 à 3000 ft
1500m à 5 km
500 à 1000 ft
800 à 1500m
200 à 500 ft
< 800m
< 200 ft
Symboles :   Orages  Brouillard  Fortes neiges  Fortes précipitations  Vent > 20 kt
SIGMETs :   Divers  Orages  Givrage  Turbulence  Onde Orograph.  Cendres Volcan.







- Altitude de l'aérodrome : 144 ft
- Code IATA : PGF
- Voir les cartes d'approche


LFMP - Perpignan

DERNIER METAR :
  • 260530Z AUTO 32005KT 290V350 9999 OVC076/// 12/08 Q1007 TEMPO BKN013

METARs EXPIRÉS :
  • 260500Z AUTO 29005KT 9999 OVC076/// 12/08 Q1007 TEMPO BKN013
  • 260430Z AUTO 33003KT 290V030 9999 OVC076/// 12/08 Q1007 TEMPO BKN013
  • 260400Z AUTO 00000KT 9999 OVC072/// 12/09 Q1007 TEMPO BKN013
  • 260330Z AUTO VRB02KT 9999 OVC074/// 12/10 Q1007 TEMPO BKN013
  • 260300Z AUTO VRB01KT 9999 -RA BKN080/// OVC110/// 12/09 Q1007 TEMPO BKN013

TAF TAF LFMP
Valide du 26 à 03h jusqu'au 27 à 03h UTC


260200Z 2603/2703 VRB03KT 9999 BKN030
TEMPO 2603/2607 -RA BKN013
BECMG 2607/2609 32013KT
TEMPO 2621/2703 32018G30KT
ATIS : +33 4 68 63 75 12
Pas de NOTAMs connus pour ce terrain.



MET'MAP, la Météo Aéronautique d'un coup d'oeil ! - Copyright ORBIFLY Décembre 2007 - Disclaimer

ORBIFLY MET'MAP TEAM :

Programmation & Développement : Alexandra Zaïnal
Conception & Développement : Baudouin d'Aumeries
Co-Programmation & Développement : Marc-Olivier Méhu
Soutien technique & logistique : Manuel Goepfert

Contact : metmap@orbifly.com




SOURCES & CREDITS :

   NOAA